EW8865 Weather Reports


time (UTC)temp
F
wind
direction
speed
knots
gust
knots
rain 1hr
in
rain 24hr
in
rain mn
in
humidity
%
barometer
mb
20260903084004 65 239 5.2 13.9 0.00 0.47 0.10 89 1016.7
20260903083503 65 268 7.8 11.3 0.00 0.47 0.10 90 1016.7
20260903083003 65 267 5.2 11.3 0.01 0.48 0.10 90 1016.7
20260903082504 65 228 4.3 11.3 0.01 0.49 0.10 90 1016.8
20260903082004 65 247 7.8 11.3 0.01 0.50 0.10 90 1016.8
20260903081504 65 256 7.0 13.0 0.01 0.50 0.10 90 1016.8
20260903081004 65 280 7.0 10.4 0.01 0.50 0.10 90 1016.8
20260903080504 64 274 7.0 11.3 0.01 0.50 0.10 90 1016.8
20260903075004 64 267 6.1 12.2 0.01 0.53 0.10 91 1016.7
20260903074503 64 256 7.0 11.3 0.01 0.53 0.10 91 1016.6
20260903074004 64 256 6.1 11.3 0.01 0.53 0.10 91 1016.6
20260903072504 64 259 5.2 10.4 0.00 0.52 0.09 92 1016.4
20260903072004 64 254 5.2 10.4 0.00 0.52 0.09 91 1016.3
20260903071504 64 236 6.1 12.2 0.00 0.52 0.09 91 1016.2
20260903071004 64 247 7.8 11.3 0.00 0.52 0.09 91 1016.2
20260903070504 64 257 7.0 11.3 0.00 0.52 0.09 91 1016.1
20260903070004 64 246 6.1 12.2 0.00 0.52 0.09 92 1016.1
20260903065504 64 273 6.1 13.0 0.00 0.52 0.09 92 1016.0
20260903065004 64 235 7.0 11.3 0.00 0.52 0.09 92 1015.9
20260903064503 64 243 6.1 10.4 0.00 0.52 0.09 92 1015.8
20260903064004 64 239 6.1 12.2 0.00 0.52 0.09 92 1015.8
20260903063504 64 245 7.8 12.2 0.00 0.52 0.09 92 1015.8
20260903063003 64 243 7.8 13.0 0.00 0.52 0.09 92 1015.7
20260903062504 64 236 7.0 13.9 0.00 0.52 0.09 92 1015.6
20260903062003 64 222 7.8 12.2 0.00 0.52 0.09 92 1015.7
20260903061503 64 238 7.8 11.3 0.00 0.52 0.09 92 1015.6
20260903060004 63 249 6.1 11.3 0.00 0.52 0.09 92 1015.6
20260903055503 63 244 6.1 12.2 0.00 0.52 0.09 92 1015.6
20260903055004 63 238 7.0 12.2 0.00 0.52 0.09 92 1015.5
20260903054504 63 237 6.1 12.2 0.00 0.52 0.09 92 1015.5
20260903054004 63 253 7.8 13.0 0.00 0.52 0.09 92 1015.7
20260903053504 63 247 7.0 13.9 0.00 0.52 0.09 92 1015.7
20260903053004 63 250 6.1 10.4 0.00 0.52 0.09 92 1015.6
20260903052504 63 254 6.1 10.4 0.00 0.52 0.09 92 1015.5
20260903051504 63 250 4.3 8.7 0.00 0.52 0.09 92 1015.4
20260903051004 63 271 5.2 10.4 0.00 0.52 0.09 92 1015.4
20260903050504 63 260 7.8 11.3 0.00 0.52 0.09 92 1015.5
20260903045503 63 270 7.0 14.8 0.00 0.52 0.09 92 1015.5
20260903045004 63 273 6.1 10.4 0.00 0.52 0.09 92 1015.5
20260903044503 63 262 7.8 13.9 0.00 0.52 0.09 92 1015.4
20260903044004 63 250 7.8 17.4 0.00 0.52 0.09 92 1015.2
20260903043503 63 253 7.8 15.6 0.00 0.52 0.09 92 1015.2
20260903043003 63 246 9.6 15.6 0.00 0.52 0.09 92 1015.3
20260903042504 63 249 7.8 15.6 0.00 0.52 0.09 93 1015.3
20260903041003 63 251 7.8 13.9 0.00 0.52 0.09 93 1015.3
20260903040504 63 251 7.8 13.9 0.00 0.52 0.09 93 1015.3
20260903040004 63 246 7.8 13.0 0.00 0.52 0.09 93 1015.4
20260903035503 63 258 7.0 10.4 0.00 0.52 0.09 93 1015.4
20260903035004 63 235 6.1 12.2 0.00 0.52 0.09 93 1015.4
20260903034004 63 251 8.7 13.0 0.00 0.52 0.09 93 1015.2
20260903033504 63 245 7.8 12.2 0.00 0.52 0.09 93 1015.1
20260903033003 63 256 6.1 11.3 0.00 0.52 0.09 93 1015.3
20260903032504 63 247 8.7 12.2 0.00 0.52 0.09 93 1015.3
20260903032004 63 255 10.4 15.6 0.00 0.52 0.09 93 1015.3
20260903031004 63 248 7.0 10.4 0.00 0.52 0.09 93 1015.2
20260903030503 63 257 8.7 13.9 0.00 0.52 0.09 93 1015.1
20260903030004 64 252 6.1 13.0 0.00 0.52 0.09 93 1015.0
20260903025504 64 254 7.0 13.9 0.00 0.52 0.09 93 1015.0
20260903024504 64 241 8.7 14.8 0.01 0.52 0.09 94 1015.2
20260903024004 64 258 9.6 13.9 0.01 0.52 0.09 94 1015.1
20260903023503 64 249 10.4 17.4 0.01 0.52 0.09 94 1015.1
20260903023004 64 250 8.7 12.2 0.01 0.52 0.09 94 1015.1
20260903022504 65 242 9.6 13.9 0.01 0.52 0.09 94 1015.1
20260903022003 65 245 11.3 21.7 0.01 0.52 0.09 94 1015.0
20260903021004 65 234 7.8 14.8 0.01 0.52 0.09 94 1014.9
20260903020003 65 244 9.6 15.6 0.02 0.52 0.09 94 1014.9
20260903015504 64 247 9.6 13.9 0.02 0.52 0.09 94 1015.0
20260903014504 64 255 8.7 15.6 0.03 0.51 0.09 94 1015.0
20260903013503 64 255 7.0 13.9 0.04 0.51 0.09 94 1015.2
20260903012504 64 242 11.3 17.4 0.04 0.51 0.09 94 1015.1
20260903010504 64 225 6.1 13.9 0.06 0.50 0.08 94 1014.9
20260903010003 64 246 6.1 10.4 0.06 0.50 0.08 94 1015.0
20260903005503 64 237 5.2 10.4 0.06 0.50 0.07 94 1014.9
20260903004004 64 252 6.1 10.4 0.04 0.47 0.05 94 1015.1
20260903003503 64 267 6.1 13.9 0.04 0.47 0.05 94 1015.2
20260903003003 64 266 8.7 14.8 0.04 0.47 0.05 94 1015.2
20260903002503 64 259 7.8 11.3 0.05 0.47 0.05 94 1015.5
20260903002004 65 263 7.0 13.0 0.04 0.46 0.04 94 1015.4
20260903000504 64 257 8.7 21.7 0.02 0.44 0.02 94 1015.3
20260903000004 64 230 9.6 14.8 0.02 0.44 0.02 94 1015.3
20260902235503 64 251 9.6 15.6 0.02 0.44 0.02 94 1015.3
20260902234503 64 250 10.4 17.4 0.02 0.43 0.01 94 1015.2
20260902234003 64 243 7.8 15.6 0.02 0.43 0.01 94 1015.5
20260902233504 64 239 9.6 15.6 0.02 0.43 0.01 94 1015.6
20260902233003 64 239 8.7 13.9 0.03 0.43 0.01 94 1015.6
20260902232504 64 242 7.0 13.9 0.02 0.43 0.00 94 1015.7
20260902231503 64 238 8.7 15.6 0.03 0.43 0.00 94 1015.6
20260902231004 64 243 11.3 17.4 0.03 0.43 0.00 94 1015.6
20260902230504 64 257 9.6 18.2 0.03 0.43 0.00 94 1015.6
20260902230004 64 242 8.7 22.6 0.04 0.43 0.00 94 1015.6
20260902225004 64 247 8.7 15.6 0.03 0.42 0.42 94 1015.7
20260902224503 64 235 7.0 17.4 0.04 0.42 0.42 94 1015.7
20260902223504 64 229 7.8 14.8 0.03 0.41 0.41 94 1015.5
20260902223004 64 230 7.8 13.9 0.02 0.40 0.40 94 1015.5
20260902222503 64 227 7.8 13.0 0.02 0.40 0.40 94 1015.5
20260902222004 64 247 9.6 17.4 0.03 0.40 0.40 94 1015.6
20260902221503 64 243 9.6 17.4 0.02 0.39 0.39 94 1015.6
20260902221004 64 222 8.7 18.2 0.02 0.39 0.39 94 1015.7
20260902220004 64 232 8.7 17.4 0.02 0.39 0.39 94 1015.6
20260902215503 64 238 10.4 15.6 0.02 0.39 0.39 94 1015.5
20260902215003 64 236 8.7 13.0 0.02 0.39 0.39 94 1015.6
20260902214503 64 243 9.6 15.6 0.02 0.38 0.38 94 1015.7
20260902214004 64 252 9.6 13.9 0.02 0.38 0.38 94 1015.7
20260902213504 64 252 7.0 15.6 0.02 0.38 0.38 94 1015.6
20260902213003 64 246 8.7 15.6 0.02 0.38 0.38 94 1015.8
20260902212503 64 256 8.7 14.8 0.03 0.38 0.38 94 1015.6
20260902211503 64 231 7.8 17.4 0.02 0.37 0.37 94 1015.7
20260902211004 64 243 7.8 12.2 0.03 0.37 0.37 94 1015.7
20260902210503 64 248 11.3 17.4 0.03 0.37 0.37 94 1015.7
20260902210004 64 243 7.8 14.8 0.02 0.36 0.36 94 1015.7
20260902205504 64 258 8.7 15.6 0.03 0.36 0.36 94 1015.7
20260902204503 64 252 10.4 13.9 0.02 0.35 0.35 93 1015.8
20260902204004 64 257 10.4 18.2 0.02 0.35 0.35 93 1015.8
20260902203503 64 254 9.6 15.6 0.02 0.35 0.35 93 1015.7
20260902203004 64 253 10.4 14.8 0.02 0.35 0.35 93 1015.5
20260902202503 64 247 7.8 13.9 0.02 0.35 0.35 93 1015.5
20260902201503 64 251 7.0 13.0 0.02 0.35 0.35 93 1015.3
20260902201003 64 232 7.8 11.3 0.01 0.34 0.34 93 1015.4
20260902200503 64 252 7.0 12.2 0.02 0.34 0.34 93 1015.5
20260902200003 64 268 6.1 11.3 0.02 0.34 0.34 93 1015.5
20260902195503 64 255 8.7 13.0 0.01 0.33 0.33 93 1015.5
20260902195004 64 257 7.8 11.3 0.01 0.33 0.33 93 1015.6
20260902194503 64 258 6.1 10.4 0.01 0.33 0.33 93 1015.5
20260902194004 64 269 7.0 13.9 0.01 0.33 0.33 93 1015.5
20260902193504 64 259 6.1 13.9 0.01 0.33 0.33 93 1015.4
20260902193004 64 252 7.8 13.0 0.01 0.33 0.33 93 1015.4
20260902192503 64 256 7.8 14.8 0.01 0.33 0.33 93 1015.3
20260902192004 64 243 4.3 11.3 0.01 0.33 0.33 93 1015.2
20260902191504 64 218 5.2 10.4 0.02 0.33 0.33 93 1015.2
20260902191004 64 228 4.3 10.4 0.02 0.33 0.33 93 1015.2
20260902190504 64 256 6.1 10.4 0.01 0.32 0.32 93 1015.3
20260902190004 64 245 7.8 14.8 0.01 0.32 0.32 93 1015.4
20260902185003 64 248 7.0 13.9 0.01 0.32 0.32 93 1015.3
20260902184503 64 228 8.7 14.8 0.01 0.32 0.32 93 1015.4
20260902184004 64 242 9.6 13.9 0.01 0.32 0.32 93 1015.3
20260902183504 64 222 7.8 19.1 0.01 0.32 0.32 93 1015.2
20260902183004 64 250 9.6 17.4 0.01 0.32 0.32 92 1015.2
20260902182504 64 265 6.1 12.2 0.01 0.32 0.32 93 1015.1
20260902182004 64 235 7.8 12.2 0.01 0.32 0.32 93 1015.1
20260902181503 64 243 5.2 10.4 0.00 0.31 0.31 92 1015.1
20260902181004 64 251 6.1 11.3 0.00 0.31 0.31 92 1015.2
20260902180504 64 259 7.0 12.2 0.00 0.31 0.31 92 1015.3
20260902175503 64 229 6.1 13.0 0.00 0.31 0.31 92 1015.3
20260902175003 64 266 4.3 10.4 0.00 0.31 0.31 92 1015.3
20260902174004 64 229 4.3 13.0 0.00 0.31 0.31 92 1015.2
20260902173504 64 259 7.0 13.0 0.00 0.31 0.31 92 1015.2
20260902173003 64 241 5.2 11.3 0.00 0.31 0.31 92 1015.2
20260902172004 65 257 9.6 15.6 0.00 0.31 0.31 92 1015.1
20260902171503 65 226 5.2 15.6 0.00 0.31 0.31 92 1015.1
20260902171004 65 237 8.7 13.9 0.01 0.31 0.31 92 1015.0
20260902170503 65 242 7.8 13.9 0.01 0.31 0.31 92 1015.0
20260902165504 65 261 6.1 13.9 0.01 0.31 0.31 92 1014.9
20260902165003 65 246 9.6 17.4 0.01 0.31 0.31 92 1015.0
20260902164504 65 238 7.0 12.2 0.01 0.31 0.31 92 1015.0
20260902163504 65 244 9.6 17.4 0.01 0.31 0.31 92 1015.0
20260902163004 65 249 8.7 14.8 0.01 0.31 0.31 92 1015.0
20260902162504 65 253 11.3 17.4 0.01 0.31 0.31 92 1015.1
20260902162004 65 264 9.6 14.8 0.01 0.31 0.31 92 1015.1
20260902161004 65 226 7.8 15.6 0.01 0.31 0.31 92 1015.0
20260902160503 65 236 8.7 14.8 0.01 0.31 0.31 92 1015.0
20260902155503 65 261 8.7 13.0 0.02 0.31 0.31 92 1015.0
20260902155004 65 259 7.8 13.0 0.02 0.31 0.31 92 1015.0
20260902154503 65 241 8.7 17.4 0.02 0.31 0.31 92 1014.9
20260902153503 65 231 9.6 17.4 0.02 0.31 0.31 92 1014.9
20260902152504 65 232 7.0 10.4 0.02 0.31 0.31 93 1015.0
20260902152004 65 256 8.7 13.9 0.02 0.31 0.31 92 1015.0
20260902151504 65 241 7.0 14.8 0.02 0.31 0.31 92 1015.0
20260902150503 66 242 5.2 17.4 0.02 0.30 0.30 92 1015.0
20260902150003 66 252 7.8 17.4 0.01 0.29 0.29 92 1015.0
20260902145503 66 256 7.0 11.3 0.00 0.28 0.28 92 1015.0
20260902144004 66 261 5.2 10.4 0.02 0.28 0.28 92 1015.1
20260902143504 66 257 7.8 12.2 0.02 0.28 0.28 92 1015.1
20260902143004 66 242 6.1 10.4 0.02 0.28 0.28 92 1015.0
20260902142504 66 265 6.1 11.3 0.02 0.28 0.28 92 1015.1
20260902142004 66 238 7.8 11.3 0.03 0.28 0.28 92 1015.1
20260902141504 65 223 6.1 11.3 0.03 0.28 0.28 92 1015.1
20260902140504 66 226 7.8 17.4 0.04 0.28 0.28 92 1015.1
20260902140003 66 233 8.7 18.2 0.05 0.28 0.28 92 1015.2
20260902135504 66 248 11.3 21.7 0.05 0.28 0.28 92 1015.1
20260902135004 66 230 6.1 17.4 0.05 0.28 0.28 92 1015.1
20260902134504 66 214 6.1 11.3 0.03 0.27 0.27 92 1015.0
20260902134003 66 207 7.8 13.9 0.05 0.27 0.27 92 1014.9
20260902133503 66 203 7.0 13.0 0.05 0.27 0.27 92 1014.9
20260902133004 66 201 6.1 11.3 0.05 0.27 0.27 92 1015.0
20260902132503 66 214 7.0 14.8 0.04 0.26 0.26 92 1015.0
20260902132003 66 218 6.1 10.4 0.03 0.25 0.25 92 1014.9
20260902131504 66 220 6.1 11.3 0.03 0.25 0.25 92 1014.9
20260902131004 66 220 6.1 13.9 0.02 0.24 0.24 91 1014.9
20260902130503 66 214 8.7 19.1 0.02 0.24 0.24 91 1014.9
20260902125004 66 206 7.0 14.8 0.02 0.24 0.24 91 1014.9
20260902124503 66 215 7.0 12.2 0.02 0.24 0.24 91 1014.9
20260902124004 66 212 7.0 11.3 0.00 0.22 0.22 90 1014.9
20260902123003 65 199 7.8 17.4 0.00 0.22 0.22 90 1014.9
20260902122504 65 213 7.8 17.4 0.01 0.22 0.22 90 1015.0
20260902122003 65 200 5.2 13.0 0.01 0.22 0.22 92 1014.9
20260902120503 64 195 8.7 13.0 0.03 0.22 0.22 92 1015.2
20260902120004 64 212 6.1 11.3 0.03 0.22 0.22 92 1015.1
20260902115503 64 197 6.1 10.4 0.03 0.22 0.22 92 1015.2
20260902115004 64 168 5.2 8.7 0.04 0.22 0.22 92 1015.2
20260902114503 63 210 5.2 10.4 0.05 0.22 0.22 92 1015.2
20260902114003 63 136 1.7 6.1 0.05 0.22 0.22 92 1015.2
20260902113004 63 114 2.6 5.2 0.05 0.22 0.22 92 1015.5
20260902112504 63 198 2.6 5.2 0.04 0.21 0.21 92 1015.6
20260902112004 63 175 4.3 8.7 0.04 0.21 0.21 92 1015.6
20260902111003 63 176 6.1 10.4 0.02 0.20 0.20 92 1015.7
20260902110503 63 166 2.6 8.7 0.02 0.19 0.19 92 1015.7
20260902105003 62 137 4.3 7.8 0.03 0.18 0.18 92 1016.0
20260902104004 62 138 2.6 4.3 0.03 0.17 0.17 93 1016.2
20260902103503 62 136 2.6 6.1 0.04 0.17 0.17 93 1016.2
20260902103003 62 129 4.3 7.8 0.05 0.17 0.17 93 1016.2
20260902102504 61 144 2.6 7.0 0.06 0.17 0.17 92 1016.2
20260902101504 61 177 1.7 4.3 0.07 0.17 0.17 92 1016.4
20260902101004 61 178 1.7 7.0 0.08 0.17 0.17 92 1016.6
20260902100504 61 177 3.5 7.0 0.09 0.17 0.17 92 1016.6
20260902100004 61 182 0.0 2.6 0.09 0.17 0.17 92 1016.7
20260902095504 61 178 0.0 0.9 0.09 0.16 0.16 92 1016.7
20260902095003 61 178 0.9 1.7 0.09 0.15 0.15 92 1016.8
20260902094503 61 178 0.0 0.9 0.08 0.14 0.14 92 1016.8
20260902094004 61 177 1.7 2.6 0.09 0.14 0.14 92 1016.7
20260902093004 60 175 0.0 6.1 0.08 0.13 0.13 92 1016.8
20260902092504 60 186 1.7 6.1 0.08 0.12 0.12 92 1016.8
20260902092003 60 191 2.6 7.8 0.08 0.11 0.11 92 1016.9
20260902091504 60 133 3.5 7.0 0.07 0.10 0.10 92 1016.9
20260902091003 60 162 2.6 7.0 0.07 0.09 0.09 92 1017.0
20260902090504 60 178 2.6 7.0 0.06 0.08 0.08 92 1017.0
20260902090004 60 162 3.5 7.8 0.06 0.07 0.07 91 1017.0
20260902085504 60 207 3.5 8.7 0.07 0.07 0.07 91 1017.0
20260902085003 60 187 6.1 11.3 0.06 0.06 0.06 91 1017.1